When you browse on this site, cookies collect data to enhance your experience and personalize the content and advertising you see.
Visit our Privacy Policy to learn more. By continuing to use the site, you agree to this use of cookies and data.
  • în România
  • Lista ţărilor
  • Pe 7 zile
  • Temperatura apei
  • Hartă satelitară
  • Meteo pe hartă
  • Widget-uri
  • user-avatar
    Intrare

    Meteo pe oră la Alho

    Astăzi, 22 Februarie, Vineri

    Timp Temperatura Precipitaţii Vânt Presiune Umiditate
    00:00 -15°C° 0 mm 4 m/s 766 mmHg 87%
    01:00 -15°C° 0 mm 4 m/s 767 mmHg 86%
    02:00 -16°C° 0 mm 4 m/s 767 mmHg 88%
    03:00 -16°C° 0 mm 4 m/s 768 mmHg 87%
    04:00 -16°C° 0 mm 4 m/s 769 mmHg 86%
    05:00 -16°C° 0 mm 4 m/s 769 mmHg 84%
    06:00 -17°C° 0 mm 4 m/s 770 mmHg 84%
    07:00 -17°C° 0 mm 4 m/s 770 mmHg 84%
    08:00 -17°C° 0 mm 4 m/s 771 mmHg 82%
    09:00 -16°C° 0 mm 4 m/s 771 mmHg 81%
    10:00 -15°C° 0 mm 4 m/s 772 mmHg 79%
    11:00 -13°C° 0 mm 3 m/s 772 mmHg 77%
    12:00 -13°C° 0 mm 3 m/s 772 mmHg 77%
    13:00 -12°C° 0 mm 3 m/s 772 mmHg 77%
    14:00 -10°C° 0 mm 3 m/s 772 mmHg 77%
    15:00 -10°C° 0 mm 2 m/s 772 mmHg 80%
    16:00 -12°C° 0 mm 2 m/s 772 mmHg 83%
    17:00 -13°C° 0 mm 2 m/s 772 mmHg 87%
    18:00 -13°C° 0 mm 2 m/s 772 mmHg 86%
    19:00 -13°C° 0 mm 2 m/s 772 mmHg 86%
    20:00 -13°C° 0 mm 2 m/s 771 mmHg 86%
    21:00 -13°C° 0 mm 3 m/s 771 mmHg 82%
    22:00 -12°C° 0 mm 3 m/s 770 mmHg 78%
    23:00 -11°C° 0 mm 4 m/s 770 mmHg 74%

    Mâine, 23 Februarie, Sâmbătă

    Timp Temperatura Precipitaţii Vânt Presiune Umiditate
    00:00 -12°C° 0 mm 5 m/s 769 mmHg 75%
    01:00 -11°C° 0 mm 5 m/s 768 mmHg 76%
    02:00 -11°C° 0 mm 6 m/s 767 mmHg 77%
    03:00 -10°C° 0.6 mm 6 m/s 766 mmHg 82%
    04:00 -9°C° 0.6 mm 6 m/s 765 mmHg 87%
    05:00 -9°C° 0.6 mm 6 m/s 764 mmHg 92%
    06:00 -8°C° 0.6 mm 6 m/s 763 mmHg 91%
    07:00 -6°C° 0.6 mm 6 m/s 762 mmHg 91%
    08:00 -5°C° 0.6 mm 5 m/s 761 mmHg 91%
    09:00 -2°C° 0.1 mm 5 m/s 761 mmHg 91%
    10:00 -1°C° 0.1 mm 5 m/s 760 mmHg 92%
    11:00 0°C° 0.1 mm 5 m/s 760 mmHg 93%
    12:00 +1°C° 0 mm 5 m/s 760 mmHg 93%
    13:00 +1°C° 0 mm 5 m/s 760 mmHg 93%
    14:00 +1°C° 0 mm 5 m/s 759 mmHg 94%
    15:00 +1°C° 0 mm 5 m/s 759 mmHg 93%
    16:00 +1°C° 0 mm 5 m/s 759 mmHg 93%
    17:00 +1°C° 0 mm 4 m/s 760 mmHg 92%
    18:00 0°C° 0 mm 4 m/s 760 mmHg 92%
    19:00 0°C° 0 mm 4 m/s 760 mmHg 92%
    20:00 0°C° 0 mm 4 m/s 760 mmHg 92%
    21:00 -1°C° 0 mm 4 m/s 761 mmHg 92%
    22:00 -1°C° 0 mm 4 m/s 761 mmHg 92%
    23:00 0°C° 0 mm 3 m/s 761 mmHg 92%

    Poimâine, 24 Februarie, Duminică

    Timp Temperatura Precipitaţii Vânt Presiune Umiditate
    00:00 0°C° 0 mm 3 m/s 761 mmHg 92%
    01:00 -1°C° 0 mm 3 m/s 762 mmHg 93%
    02:00 -1°C° 0 mm 3 m/s 762 mmHg 93%
    03:00 -2°C° 0 mm 3 m/s 762 mmHg 93%
    04:00 -2°C° 0 mm 3 m/s 762 mmHg 94%
    05:00 -2°C° 0 mm 2 m/s 762 mmHg 95%
    06:00 -3°C° 0 mm 2 m/s 762 mmHg 95%
    07:00 -3°C° 0 mm 2 m/s 762 mmHg 95%
    08:00 -3°C° 0 mm 2 m/s 762 mmHg 95%
    09:00 -2°C° 0 mm 2 m/s 762 mmHg 95%
    10:00 -1°C° 0 mm 2 m/s 761 mmHg 96%
    11:00 +1°C° 0 mm 2 m/s 761 mmHg 96%
    12:00 +2°C° 0 mm 2 m/s 761 mmHg 97%
    13:00 +2°C° 0 mm 2 m/s 761 mmHg 97%
    14:00 +1°C° 0 mm 3 m/s 760 mmHg 98%
    15:00 +1°C° 0 mm 3 m/s 760 mmHg 97%
    16:00 +1°C° 0 mm 3 m/s 759 mmHg 96%
    17:00 +1°C° 0 mm 3 m/s 759 mmHg 94%
    18:00 0°C° 0.1 mm 4 m/s 759 mmHg 94%
    19:00 0°C° 0.1 mm 4 m/s 758 mmHg 93%
    20:00 +1°C° 0.1 mm 4 m/s 758 mmHg 92%
    21:00 +1°C° 0 mm 5 m/s 758 mmHg 89%
    22:00 +1°C° 0 mm 5 m/s 758 mmHg 87%
    23:00 0°C° 0 mm 5 m/s 758 mmHg 85%

    25 Februarie, Luni

    Timp Temperatura Precipitaţii Vânt Presiune Umiditate
    00:00 0°C° 0 mm 5 m/s 758 mmHg 82%
    01:00 -1°C° 0 mm 6 m/s 759 mmHg 79%
    02:00 -2°C° 0 mm 6 m/s 759 mmHg 76%
    03:00 -1°C° 0 mm 5 m/s 759 mmHg 77%
    04:00 -1°C° 0 mm 5 m/s 759 mmHg 79%
    05:00 -2°C° 0 mm 5 m/s 759 mmHg 81%
    06:00 -2°C° 0 mm 5 m/s 758 mmHg 81%
    07:00 -2°C° 0 mm 5 m/s 758 mmHg 81%
    08:00 -2°C° 0 mm 5 m/s 758 mmHg 81%
    09:00 -2°C° 0 mm 6 m/s 758 mmHg 79%
    10:00 -1°C° 0 mm 6 m/s 757 mmHg 77%
    11:00 +1°C° 0 mm 6 m/s 757 mmHg 75%
    12:00 +1°C° 0 mm 6 m/s 757 mmHg 73%
    13:00 +2°C° 0 mm 7 m/s 757 mmHg 71%
    14:00 +2°C° 0 mm 7 m/s 756 mmHg 68%
    15:00 +1°C° 0 mm 6 m/s 757 mmHg 70%
    16:00 +1°C° 0 mm 6 m/s 757 mmHg 72%
    17:00 0°C° 0 mm 5 m/s 757 mmHg 73%
    18:00 -1°C° 0 mm 5 m/s 757 mmHg 76%
    19:00 -1°C° 0 mm 4 m/s 758 mmHg 79%
    20:00 -1°C° 0 mm 3 m/s 758 mmHg 82%
    21:00 -2°C° 0 mm 3 m/s 757 mmHg 85%
    22:00 -2°C° 0 mm 3 m/s 757 mmHg 87%
    23:00 -4°C° 0 mm 3 m/s 757 mmHg 90%

    26 Februarie, Marţi

    Timp Temperatura Precipitaţii Vânt Presiune Umiditate
    00:00 -2°C° 0 mm 3 m/s 755 mmHg 90%
    01:00 -2°C° 0 mm 3 m/s 754 mmHg 91%
    02:00 -2°C° 0 mm 3 m/s 753 mmHg 91%
    03:00 -1°C° 1 mm 3 m/s 752 mmHg 92%
    04:00 -1°C° 1 mm 3 m/s 750 mmHg 92%
    05:00 0°C° 1 mm 3 m/s 749 mmHg 92%
    06:00 -1°C° 0.4 mm 4 m/s 748 mmHg 90%
    07:00 0°C° 0.4 mm 4 m/s 748 mmHg 87%
    08:00 +1°C° 0.4 mm 5 m/s 747 mmHg 84%
    09:00 +1°C° 0.2 mm 5 m/s 748 mmHg 83%
    10:00 +1°C° 0.2 mm 5 m/s 748 mmHg 83%
    11:00 +1°C° 0.2 mm 5 m/s 748 mmHg 82%
    12:00 +1°C° 0 mm 5 m/s 749 mmHg 83%
    13:00 +1°C° 0 mm 5 m/s 749 mmHg 83%
    14:00 +1°C° 0 mm 4 m/s 750 mmHg 83%
    15:00 0°C° 0.1 mm 4 m/s 751 mmHg 85%
    16:00 +1°C° 0.1 mm 3 m/s 752 mmHg 88%
    17:00 +1°C° 0.1 mm 3 m/s 753 mmHg 90%
    18:00 0°C° 0 mm 3 m/s 754 mmHg 91%
    19:00 0°C° 0 mm 3 m/s 755 mmHg 92%
    20:00 0°C° 0 mm 3 m/s 756 mmHg 92%
    21:00 -1°C° 0 mm 3 m/s 757 mmHg 92%
    22:00 -2°C° 0 mm 3 m/s 758 mmHg 92%
    23:00 -2°C° 0 mm 3 m/s 758 mmHg 92%

    27 Februarie, Miercuri

    Timp Temperatura Precipitaţii Vânt Presiune Umiditate
    00:00 -4°C° 0 mm 3 m/s 759 mmHg 93%
    01:00 -3°C° 0 mm 2 m/s 759 mmHg 94%
    02:00 -4°C° 0 mm 2 m/s 759 mmHg 95%
    03:00 -4°C° 0 mm 2 m/s 759 mmHg 95%
    04:00 -4°C° 0 mm 2 m/s 759 mmHg 95%
    05:00 -4°C° 0 mm 2 m/s 759 mmHg 96%
    06:00 -4°C° 0 mm 2 m/s 759 mmHg 95%
    07:00 -4°C° 0 mm 2 m/s 758 mmHg 95%
    08:00 -4°C° 0 mm 2 m/s 758 mmHg 95%
    09:00 -4°C° 0.1 mm 3 m/s 757 mmHg 92%
    10:00 -3°C° 0.1 mm 4 m/s 756 mmHg 90%
    11:00 -2°C° 0.1 mm 4 m/s 755 mmHg 87%
    12:00 -1°C° 0 mm 5 m/s 754 mmHg 86%
    13:00 -1°C° 0 mm 5 m/s 752 mmHg 85%
    14:00 -1°C° 0 mm 6 m/s 751 mmHg 84%
    15:00 0°C° 0 mm 5 m/s 750 mmHg 84%
    16:00 0°C° 0 mm 5 m/s 749 mmHg 84%
    17:00 0°C° 0 mm 5 m/s 748 mmHg 84%
    18:00 0°C° 0 mm 5 m/s 747 mmHg 85%
    19:00 0°C° 0 mm 5 m/s 745 mmHg 87%
    20:00 0°C° 0 mm 5 m/s 744 mmHg 88%
    21:00 0°C° 0 mm 5 m/s 743 mmHg 87%
    22:00 0°C° 0 mm 5 m/s 742 mmHg 86%
    23:00 -1°C° 0 mm 5 m/s 740 mmHg 85%
    Arată mai mult